EW9766 Weather Reports


time (UTC)temp
F
wind
direction
speed
knots
gust
knots
rain 1hr
in
rain 24hr
in
rain mn
in
humidity
%
barometer
mb
20260508051534 46 180 3.5 4.3 0.00 0.00 0.00 49 1017.7
20260508050035 47 183 2.6 4.3 0.00 0.00 0.00 45 1017.9
20260508044536 50 255 0.9 3.5 0.00 0.00 0.00 41 1017.7
20260508043106 51 358 0.9 5.2 0.00 0.00 0.00 40 1017.6
20260508041531 53 38 0.9 5.2 0.00 0.00 0.00 38 1017.5
20260508040031 55 26 2.6 6.1 0.00 0.00 0.00 38 1017.2
20260508030031 60 347 3.5 7.8 0.00 0.00 0.00 38 1016.6
20260508024534 60 326 4.3 11.3 0.00 0.00 0.00 38 1016.6
20260508023030 62 347 4.3 8.7 0.00 0.00 0.00 35 1016.5
20260508021531 63 334 2.6 7.8 0.00 0.00 0.00 32 1016.4
20260508020052 65 283 5.2 13.0 0.00 0.00 0.00 29 1016.2
20260508014531 67 291 7.0 17.4 0.00 0.00 0.00 29 1016.1
20260508013035 67 279 7.0 14.8 0.00 0.00 0.00 28 1016.2
20260508011534 68 273 8.7 21.7 0.00 0.00 0.00 26 1016.3
20260508010031 68 285 10.4 20.0 0.00 0.00 0.00 26 1016.3
20260508004647 69 279 9.6 20.0 0.00 0.00 0.00 26 1016.4
20260508001535 71 280 7.8 17.4 0.00 0.00 0.00 25 1016.5
20260508000032 72 273 7.0 19.1 0.00 0.00 0.00 24 1016.5
20260507234608 73 265 7.0 18.2 0.00 0.00 0.00 25 1016.5
20260507231528 73 266 6.1 14.8 0.00 0.00 0.00 25 1016.6
20260507230031 72 282 7.0 16.5 0.00 0.00 0.00 25 1016.7
20260507224543 72 289 6.1 17.4 0.00 0.00 0.00 25 1016.8
20260507221536 71 295 6.1 13.0 0.00 0.00 0.00 26 1017.3
20260507220033 72 268 7.0 15.6 0.00 0.00 0.00 26 1017.4
20260507213040 70 325 7.8 15.6 0.00 0.00 0.00 30 1017.4
20260507213035 68 342 8.7 20.9 0.00 0.00 0.00 32 1017.5
20260507210030 70 357 10.4 18.2 0.00 0.00 0.00 34 1017.6
20260507204535 70 359 8.7 15.6 0.00 0.00 0.00 33 1017.7
20260507203036 70 344 9.6 15.6 0.00 0.00 0.00 29 1017.9
20260507201537 71 337 7.8 16.5 0.00 0.00 0.00 29 1018.1
20260507200106 71 308 6.1 13.9 0.00 0.00 0.00 29 1018.2
20260507194607 70 294 6.1 13.0 0.00 0.00 0.00 32 1018.3
20260507191535 67 18 7.8 13.9 0.00 0.00 0.00 37 1018.6
20260507190033 66 18 7.8 13.0 0.00 0.00 0.00 38 1018.8
20260507184534 65 14 6.1 10.4 0.00 0.00 0.00 41 1019.0
20260507181537 65 53 5.2 9.6 0.00 0.00 0.00 44 1019.2
20260507180032 63 26 3.5 8.7 0.00 0.00 0.00 48 1019.4
20260507174537 61 26 5.2 9.6 0.00 0.00 0.00 51 1019.7
20260507171539 60 23 4.3 8.7 0.00 0.00 0.00 53 1019.7
20260507170034 58 35 5.2 8.7 0.00 0.00 0.00 55 1019.6
20260507164641 57 22 7.0 10.4 0.00 0.00 0.00 56 1019.6
20260507163034 57 21 7.8 12.2 0.00 0.00 0.00 58 1019.6
20260507161539 57 43 5.2 11.3 0.00 0.00 0.00 60 1019.5
20260507160032 56 38 5.2 8.7 0.00 0.00 0.00 62 1019.6
20260507154534 56 36 5.2 7.8 0.00 0.00 0.00 63 1019.5
20260507153034 56 31 3.5 6.1 0.00 0.00 0.00 65 1019.6
20260507151531 55 44 3.5 6.1 0.00 0.00 0.00 66 1019.7
20260507150048 55 13 2.6 6.1 0.00 0.00 0.00 66 1019.7
20260507144537 55 334 1.7 5.2 0.00 0.00 0.00 67 1019.7
20260507141532 53 17 1.7 3.5 0.00 0.00 0.00 72 1019.5
20260507140031 51 30 2.6 6.1 0.00 0.00 0.00 75 1019.5
20260507134537 48 67 3.5 6.1 0.00 0.00 0.00 78 1019.3
20260507133106 48 118 2.6 6.1 0.00 0.00 0.00 77 1019.3
20260507131536 49 27 3.5 7.8 0.00 0.00 0.00 77 1019.2
20260507130030 49 349 5.2 9.6 0.00 0.00 0.00 76 1019.1
20260507124531 50 350 6.1 10.4 0.00 0.00 0.00 73 1019.1
20260507123030 51 314 6.1 11.3 0.00 0.00 0.00 72 1019.0
20260507121536 51 286 5.2 13.9 0.00 0.00 0.00 72 1018.8
20260507120033 51 287 6.1 13.9 0.00 0.00 0.00 72 1018.8
20260507113034 51 261 6.1 20.9 0.00 0.00 0.00 73 1018.8
20260507111531 51 246 6.1 17.4 0.00 0.00 0.00 73 1018.8
20260507110032 52 248 7.0 19.1 0.00 0.00 0.00 72 1018.8
20260507103036 52 244 7.0 18.2 0.00 0.00 0.00 70 1019.0
20260507101531 53 266 6.1 15.6 0.00 0.00 0.00 68 1019.2
20260507100048 53 259 7.0 21.7 0.00 0.00 0.00 68 1019.2
20260507094606 53 256 7.0 20.9 0.00 0.00 0.00 68 1019.2
20260507091535 53 229 8.7 18.2 0.00 0.00 0.00 69 1019.3
20260507084535 53 230 7.8 18.2 0.00 0.00 0.00 69 1019.7
20260507083028 54 226 7.8 19.1 0.00 0.00 0.00 69 1019.7
20260507081533 54 240 6.1 19.1 0.00 0.00 0.00 69 1019.7
20260507080149 54 249 5.2 13.0 0.00 0.00 0.00 69 1019.7
20260507074532 54 262 3.5 15.6 0.00 0.00 0.00 69 1019.8
20260507071607 54 275 4.3 12.2 0.00 0.00 0.00 70 1019.8
20260507070030 54 260 4.3 11.3 0.00 0.00 0.00 70 1019.9
20260507064532 54 266 4.3 13.0 0.00 0.00 0.00 69 1020.0
20260507063033 55 264 4.3 13.0 0.00 0.00 0.00 69 1020.2
20260507061535 54 267 3.5 13.9 0.00 0.00 0.00 69 1020.3
20260507060106 55 322 3.5 8.7 0.00 0.00 0.00 68 1020.4
20260507053032 56 284 4.3 10.4 0.00 0.00 0.00 65 1020.5